NATIONAL KEY DEER NWR FL US current weather conditions

sailwx.info

Wind from 058 at 6 knots gusting 12

Air temperature 27.8° C
Dewpoint 25.0° C

Last reported at 2016-Aug-28 10:38 UTC.
Time now 2016-Aug-28 12:02 UTC

Location: N 24°43' W 081°23'.
View on Google Maps.

See reports from other nearby stations

  
Tides and Currents Weather Stations Pressure Air Temp Water Temp Dewpoint Dewpoint Depression Visibility Wind Speed Wind Dir Waves Ship Positions
date/time (UTC)wind fromknots sea level pressurealtimeterstation pressurevisibilityair tempwater tempwave heightnotes
2016-Aug-28 10:38 058 6 gusting 12 27.8
2016-Aug-28 09:38 089 6 gusting 19 26.7
2016-Aug-28 08:38 046 6 gusting 13 28.3
2016-Aug-28 07:38 066 7 gusting 13 28.9
2016-Aug-28 06:38 069 8 gusting 17 28.9
2016-Aug-28 05:38 061 6 gusting 16 28.9
2016-Aug-28 04:38 049 8 gusting 16 29.4
2016-Aug-28 03:38 048 8 gusting 14 29.4
2016-Aug-28 02:38 049 6 gusting 13 29.4
2016-Aug-28 01:38 031 6 gusting 12 29.4
2016-Aug-28 00:38 049 6 gusting 12 29.4
2016-Aug-27 23:38 043 6 gusting 10 29.4
2016-Aug-27 22:38 055 6 gusting 8 28.9
2016-Aug-27 21:38 057 4 gusting 8 28.3
2016-Aug-27 20:38 076 4 gusting 10 27.8
2016-Aug-27 19:38 090 6 gusting 23 27.8
2016-Aug-27 18:38 069 9 gusting 15 32.2
2016-Aug-27 17:38 061 6 gusting 13 33.3
2016-Aug-27 16:38 059 6 gusting 17 32.2
2016-Aug-27 15:38 053 8 gusting 14 32.2
2016-Aug-27 14:38 055 7 gusting 13 30.6
2016-Aug-27 13:38 049 6 gusting 13 31.1
2016-Aug-27 12:38 047 6 gusting 12 30.0
2016-Aug-27 11:38 046 6 gusting 12 28.3
2016-Aug-27 10:38 047 6 gusting 12 28.3
2016-Aug-27 09:38 068 3 gusting 6 28.3
2016-Aug-27 08:38 107 3 gusting 9 28.3
2016-Aug-27 07:38 078 4 gusting 11 28.3
2016-Aug-27 06:38 056 6 gusting 12 27.8
2016-Aug-27 05:38 016 2 gusting 5 26.1
2016-Aug-27 04:38 360 2 gusting 16 25.6
2016-Aug-27 03:38 008 10 gusting 17 26.7
2016-Aug-27 02:38 079 5 gusting 9 30.0
2016-Aug-27 01:38 100 3 gusting 6 29.4
2016-Aug-27 00:38 112 2 gusting 7 29.4
2016-Aug-26 23:38 121 3 gusting 8 30.0
2016-Aug-26 22:38 100 3 gusting 9 30.0
2016-Aug-26 21:38 125 5 gusting 9 32.2
2016-Aug-26 20:38 041 4 gusting 13 29.4
2016-Aug-26 19:38 159 6 gusting 11 32.8
2016-Aug-26 18:38 077 6 gusting 12 33.9
2016-Aug-26 17:38 082 6 gusting 13 32.8
2016-Aug-26 16:38 064 6 gusting 12 32.2
2016-Aug-26 15:38 078 6 gusting 11 32.2
2016-Aug-26 14:38 083 5 gusting 9 31.7
2016-Aug-26 13:38 070 4 gusting 8 30.6
2016-Aug-26 12:38 062 5 gusting 8 28.3